NOAA 16 DEB

Satellite information

Favourite Embed

Satellite Type and Status

DEBRISIN ORBIT

Key statistics

Satellite NOAA 16 DEB at a glance.

Uptime

9000

Days in orbit

Revolutions

≈ 14.6

Per day

Orbit

SSO

Sun Synchronous Orbit

Inclination

98.9

Latest

Satellite identification and parameters

Extended collection of information and parameters for NOAA 16 DEB.

Object identification

Identified? True

Debris? True

Object name: NOAA 16 DEB

International designator: 2000-055HK

Object number (NORAD): 41307

Object ID (CCSDS): 41307

Country: UNITED STATES OF AMERICA (US)

Current information (Y/N): Y

RCS size: SMALL

Orbital parameters

Period: 98.336 minutes

Inclination: 98.9141 deg

SMA: 7057.223 km

Apoapsis: 682.938 km

Periapsis: 675.239 km

RAAN: 284.7475 deg

Eccentricy: 0.0005455

Argument of periapsis: 10.7686 deg

Mean anomaly: 349.363 deg

Mean motion: 14.6437389 rev/day

Mean motion (dot): 0.00025708 rev/day2

B* drag term: 0.0048564 1/REarth

Two-line elements (TLE)

Creation date: May 11, 2025, 10:26 p.m.

Reference frame: TEME

Reference center: EARTH

Epoch: May 11, 2025, 8:59 p.m. UTC

TLE line 0: 0 NOAA 16 DEB

TLE line 1: 1 41307U 00055HK 25131.87496817 .00025708 00000-0 48564-2 0 9998

TLE line 2: 2 41307 98.9141 284.7475 0005455 10.7686 349.3630 14.64373890486037

Live tracking on map

Real-time ground track for satellite NOAA 16 DEB.

In-orbit conjunctions

A list of the most updated potential collisions computed for object NOAA 16 DEB.

Target Orbit TCA Probability of collision Miss distance Type
SL-8 R/B LEO 2025-03-24 14:29:57 0.0007107983 214.0 (m) ROCKET BODY
DMSP 5D-2 F15 DEB SSO 2024-11-14 22:19:55 0.001335741 91.0 (m) DEBRIS
CZ-6A DEB LEO 2024-09-22 14:22:27 0.0003650768 88.0 (m) DEBRIS

Associated space launch

The NOAA K, L and M POES satellites begin the fifth generation of improved environmental monitoring in support of NOAA missions. The instrument payload has significant improvements and additions/deletions. The instrument changes have effected the spacecraft subsystems and data formats.

NOAA 16 DEB was lifted into orbit during the mission ‘Titan II SLV | NOAA 16’, on board a Titan II SLV space rocket.

The launch took place on Sept. 21, 2000, 10:22 a.m. from Space Launch Complex 4W.

For more information about the launch, click the button.

Launch to space Titan II SLV | NOAA 16
Titan II SLV | NOAA 16

Agency: N/A

Status: Launch Successful

Launch date: Sept. 21, 2000, 10:22 a.m. UTC

Rocket: Titan II SLV

Launch pad: Space Launch Complex 4W

Location: Vandenberg SFB, CA, USA

...

Latest news about this satellite

There are no fresh news available about this satellite. Check back as we update our databases every day.


Newsletter sign-up

Weekly statistics, charts and insights to help you stay on top of the space industry.